sat.trackr.live / text

‹ back to catalog

STARLINK-5256

NORAD 54175 · 2022-141U

PAYLOAD ACTIVE UNKNOWN

§ Identity

Operator
Country
US
Launch date
2022-10-28
Launch site
AFWTR
Launch vehicle
Mass (kg)
RCS (m²)

Purposes: comms

External: N2YO · Heavens-Above · Gunter

§ Orbital elements

Epoch: 2026-09-20T10:49:13.141056Z

Period
93.85 min
Inclination
53.1607°
Eccentricity
0.0001405
Mean motion
15.34408121 rev/d
Perigee alt
461.7 km
Apogee alt
463.6 km
Semi-major
6,840.8 km
B*
-1.6511e-4
RAAN
194.1490°
Arg perigee
126.6978°
Mean anomaly
233.4154°
Rev number
21,547

§ Raw data

STARLINK-52561 54175U 22141U   26263.45084654 -.00005952  00000+0 -16511-3 0  99962 54175  53.1607 194.1490 0001405 126.6978 233.4154 15.34408121215473

JSON: /api/v1/satellites/54175 · /tle

For live sub-satellite position, see the globe view (requires WebGL).

§ Visibility from observer

Set your observer location to see the next 7 days of passes ≥ 10°. The values pass through the URL so the page stays shareable.

No JS? Fill the form by hand. The geolocation button needs JavaScript.